Location: Oberkirch
(48.5323°N, 8.0787°E)
Time: 02:37:09
(UTC+00:00)

AO-85 - Pass Details

Date: 16 March 2026
Orbit: 507 x 686 km, 64.8° (Epoch: 12 April)

Event Time Altitude Azimuth Distance (km) Brightness Sun altitude
Exits shadow 02:39:59 19° 107° (ESE) 1,303 ? -28.9°
Drops below altitude 10° 02:42:26 10° 69° (ENE) 1,758 ? -28.6°
Sets 02:45:02 0° 51° (NE) 2,634 ? -28.3°
